Location: Fouquenies
(49.4624°N, 2.0492°E)
Time: 20:56:02
(UTC+00:00)

Envisat - Visible Passes

Search period start: 10 June 2023 00:00
Search period end: 20 June 2023 00:00
Orbit: 763 x 765 km, 98.2° (Epoch: 10 June)

Date Brightness Start Highest point End Pass type
(mag) Time Alt. Az. Time Alt. Az. Time Alt. Az.
11 Jun 5.5 02:29:57 10° NE 02:33:11 17° E 02:36:24 10° SE visible
13 Jun 5.0 02:53:53 10° NE 02:58:10 27° E 03:02:26 10° SSE visible
14 Jun 5.6 02:18:13 10° ENE 02:20:34 13° E 02:22:55 10° ESE visible
16 Jun 5.3 02:41:45 10° NE 02:45:37 21° E 02:49:26 10° SE visible
19 Jun 5.5 02:29:44 10° NE 02:33:00 17° E 02:36:16 10° SE visible
